TIANLIAN 1-01

Last updated on Oct. 26, 2020, 5:52 a.m. UTC

1 32779U 08019A   20299.85663247 -.00000148  00000-0  00000-0 0  9993
2 32779   4.4053  71.9868 0029649 256.5912  94.4851  1.00271484 45754
UTC
Height (km)
Latitude
Longitude
Inclination
Orbital Period
UTC large
Height (km)
Speed (km/s)
/
Latitude / Longitude
Inclination (degrees)
Orbital Period (minutes)
Azimuth
Elevation
Range (km)
Doppler Factor
iOS Compass Heading
iOS Angle

Next 30 passes for location: Hong Kong

Rise time Rise Azimuth (degrees) Set time Set Azimuth (degrees) Duration Max altitude (degrees)

No matching passes for this satellites